Time,TemperatureF,DewpointF,PressureIn,WindDirection,WindDirectionDegrees,WindSpeedMPH,WindSpeedGustMPH,Humidity,HourlyPrecipIn,Conditions,Clouds,dailyrainin,SoftwareType,DateUTC
2013-02-04 00:03:00,59.0,49.3,-100.00,SE,135,1.0,4.0,70,0.00,,,0.00,meteohub,2013-02-04 06:03:00,
2013-02-04 00:09:00,58.8,49.5,-100.00,SSE,158,3.0,4.0,71,0.00,,,0.00,meteohub,2013-02-04 06:09:00,
2013-02-04 00:13:00,58.8,49.5,-100.00,South,180,0.0,4.0,71,0.00,,,0.00,meteohub,2013-02-04 06:13:00,
2013-02-04 00:17:00,58.8,49.5,-100.00,SSW,203,3.0,3.0,71,0.00,,,0.00,meteohub,2013-02-04 06:17:00,
2013-02-04 00:19:00,58.8,49.8,-100.00,SSW,203,5.0,5.0,72,0.00,,,0.00,meteohub,2013-02-04 06:19:00,
2013-02-04 00:23:00,58.8,49.5,-100.00,South,180,3.0,3.0,71,0.00,,,0.00,meteohub,2013-02-04 06:23:00,
2013-02-04 00:25:00,58.8,49.8,-100.00,South,180,2.0,5.0,72,0.00,,,0.00,meteohub,2013-02-04 06:25:00,
2013-02-04 00:29:00,58.8,49.8,-100.00,ESE,113,4.0,5.0,72,0.00,,,0.00,meteohub,2013-02-04 06:29:00,
2013-02-04 00:31:00,58.8,49.8,-100.00,SSW,203,4.0,5.0,72,0.00,,,0.00,meteohub,2013-02-04 06:31:00,
2013-02-04 00:33:00,58.8,49.8,-100.00,South,180,5.0,5.0,72,0.00,,,0.00,meteohub,2013-02-04 06:33:00,
2013-02-04 00:35:00,58.8,49.8,-100.00,WSW,248,4.0,5.0,72,0.00,,,0.00,meteohub,2013-02-04 06:35:00,
2013-02-04 00:37:00,58.8,49.8,-100.00,SE,135,4.0,5.0,72,0.00,,,0.00,meteohub,2013-02-04 06:37:00,
2013-02-04 00:39:00,58.8,49.8,-100.00,SSE,158,3.0,5.0,72,0.00,,,0.00,meteohub,2013-02-04 06:39:00,
2013-02-04 00:41:00,58.8,49.5,-100.00,NE,45,0.0,5.0,71,0.00,,,0.00,meteohub,2013-02-04 06:41:00,
2013-02-04 00:43:00,58.8,49.5,-100.00,South,180,2.0,5.0,71,0.00,,,0.00,meteohub,2013-02-04 06:43:00,
2013-02-04 00:45:00,58.8,49.5,-100.00,ESE,113,1.0,5.0,71,0.00,,,0.00,meteohub,2013-02-04 06:45:00,
2013-02-04 00:51:00,58.8,49.5,-100.00,SE,135,2.0,4.0,71,0.00,,,0.00,meteohub,2013-02-04 06:51:00,
2013-02-04 00:53:00,58.8,49.5,-100.00,SE,135,2.0,4.0,71,0.00,,,0.00,meteohub,2013-02-04 06:53:00,
2013-02-04 00:57:00,58.8,49.5,-100.00,SSW,203,2.0,3.0,71,0.00,,,0.00,meteohub,2013-02-04 06:57:00,
2013-02-04 01:01:00,58.8,49.1,-100.00,SSE,158,0.0,6.0,70,0.00,,,0.00,meteohub,2013-02-04 07:01:00,
2013-02-04 01:08:00,58.6,48.9,-100.00,SE,135,0.0,6.0,70,0.00,,,0.00,meteohub,2013-02-04 07:08:00,
2013-02-04 01:10:00,58.6,48.9,-100.00,SW,225,2.0,6.0,70,0.00,,,0.00,meteohub,2013-02-04 07:10:00,
2013-02-04 01:12:00,58.6,48.9,-100.00,SSW,203,3.0,6.0,70,0.00,,,0.00,meteohub,2013-02-04 07:12:00,
2013-02-04 01:14:00,58.6,48.6,-100.00,South,180,5.0,6.0,69,0.00,,,0.00,meteohub,2013-02-04 07:14:00,
2013-02-04 01:17:00,58.6,48.6,-100.00,ESE,113,0.0,5.0,69,0.00,,,0.00,meteohub,2013-02-04 07:17:00,
2013-02-04 01:18:00,58.6,48.6,-100.00,South,180,1.0,5.0,69,0.00,,,0.00,meteohub,2013-02-04 07:18:00,
2013-02-04 01:20:00,58.6,48.6,-100.00,South,180,2.0,5.0,69,0.00,,,0.00,meteohub,2013-02-04 07:20:00,
2013-02-04 01:24:00,58.6,48.6,-100.00,SW,225,3.0,5.0,69,0.00,,,0.00,meteohub,2013-02-04 07:24:00,
2013-02-04 01:26:00,58.6,48.6,-100.00,South,180,2.0,5.0,69,0.00,,,0.00,meteohub,2013-02-04 07:26:00,
2013-02-04 01:28:00,58.6,48.2,-100.00,SSE,158,6.0,6.0,68,0.00,,,0.00,meteohub,2013-02-04 07:28:00,
2013-02-04 01:32:00,58.5,48.0,-100.00,South,180,2.0,6.0,68,0.00,,,0.00,meteohub,2013-02-04 07:32:00,
2013-02-04 01:36:00,58.5,48.0,-100.00,SE,135,4.0,6.0,68,0.00,,,0.00,meteohub,2013-02-04 07:36:00,
2013-02-04 01:38:00,58.5,48.0,-100.00,SSW,203,2.0,6.0,68,0.00,,,0.00,meteohub,2013-02-04 07:38:00,
2013-02-04 01:42:00,58.3,47.8,-100.00,SSE,158,1.0,6.0,68,0.00,,,0.00,meteohub,2013-02-04 07:42:00,
2013-02-04 01:44:00,58.3,47.8,-100.00,SW,225,2.0,6.0,68,0.00,,,0.00,meteohub,2013-02-04 07:44:00,
2013-02-04 01:50:00,58.3,47.8,-100.00,SSE,158,3.0,8.0,68,0.00,,,0.00,meteohub,2013-02-04 07:50:00,
2013-02-04 01:56:00,58.3,47.8,-100.00,SSE,158,3.0,8.0,68,0.00,,,0.00,meteohub,2013-02-04 07:56:00,
2013-02-04 01:58:00,58.3,47.8,-100.00,SSE,158,3.0,8.0,68,0.00,,,0.00,meteohub,2013-02-04 07:58:00,
2013-02-04 02:00:00,58.3,47.8,-100.00,South,180,8.0,8.0,68,0.00,,,0.00,meteohub,2013-02-04 08:00:00,
2013-02-04 02:02:00,58.3,47.8,-100.00,South,180,8.0,8.0,68,0.00,,,0.00,meteohub,2013-02-04 08:02:00,
2013-02-04 02:04:00,58.1,48.0,-100.00,SSE,158,4.0,8.0,69,0.00,,,0.00,meteohub,2013-02-04 08:04:00,
2013-02-04 02:06:00,58.1,48.0,-100.00,SSE,158,2.0,8.0,69,0.00,,,0.00,meteohub,2013-02-04 08:06:00,
2013-02-04 02:10:00,58.1,48.0,-100.00,SSW,203,9.0,9.0,69,0.00,,,0.00,meteohub,2013-02-04 08:10:00,
2013-02-04 02:12:00,58.1,48.0,-100.00,South,180,2.0,8.0,69,0.00,,,0.00,meteohub,2013-02-04 08:12:00,
2013-02-04 02:18:00,57.9,48.2,-100.00,SSW,203,9.0,10.0,70,0.00,,,0.00,meteohub,2013-02-04 08:18:00,
2013-02-04 02:20:00,57.9,48.2,-100.00,SSE,158,1.0,10.0,70,0.00,,,0.00,meteohub,2013-02-04 08:20:00,
2013-02-04 02:22:00,57.9,48.2,-100.00,SSW,203,1.0,10.0,70,0.00,,,0.00,meteohub,2013-02-04 08:22:00,
2013-02-04 02:26:00,57.9,48.6,-100.00,South,180,2.0,10.0,71,0.00,,,0.00,meteohub,2013-02-04 08:26:00,
2013-02-04 02:28:00,57.9,48.6,-100.00,ESE,113,4.0,10.0,71,0.00,,,0.00,meteohub,2013-02-04 08:28:00,
2013-02-04 02:32:00,57.9,48.6,-100.00,SW,225,2.0,10.0,71,0.00,,,0.00,meteohub,2013-02-04 08:32:00,
2013-02-04 02:38:00,57.7,48.4,-100.00,South,180,1.0,4.0,71,0.00,,,0.00,meteohub,2013-02-04 08:38:00,
2013-02-04 02:40:00,57.7,48.7,-100.00,SSE,158,2.0,4.0,72,0.00,,,0.00,meteohub,2013-02-04 08:40:00,
2013-02-04 02:44:00,57.7,48.7,-100.00,South,180,2.0,4.0,72,0.00,,,0.00,meteohub,2013-02-04 08:44:00,
2013-02-04 02:46:00,57.7,48.7,-100.00,ENE,68,2.0,3.0,72,0.00,,,0.00,meteohub,2013-02-04 08:46:00,
2013-02-04 02:47:00,57.7,48.7,-100.00,ENE,68,2.0,3.0,72,0.00,,,0.00,meteohub,2013-02-04 08:47:00,
2013-02-04 02:50:00,57.6,48.9,-100.00,South,180,2.0,4.0,73,0.00,,,0.00,meteohub,2013-02-04 08:50:00,
2013-02-04 02:52:00,57.7,49.1,-100.00,SW,225,4.0,4.0,73,0.00,,,0.00,meteohub,2013-02-04 08:52:00,
2013-02-04 02:56:00,57.6,48.9,-100.00,South,180,1.0,4.0,73,0.00,,,0.00,meteohub,2013-02-04 08:56:00,
2013-02-04 02:58:00,57.6,49.3,-100.00,SSE,158,2.0,4.0,74,0.00,,,0.00,meteohub,2013-02-04 08:58:00,
2013-02-04 03:02:00,57.6,49.3,-100.00,SSE,158,2.0,4.0,74,0.00,,,0.00,meteohub,2013-02-04 09:02:00,
2013-02-04 03:04:00,57.6,49.3,-100.00,South,180,1.0,4.0,74,0.00,,,0.00,meteohub,2013-02-04 09:04:00,
2013-02-04 03:08:00,57.4,49.1,-100.00,South,180,0.0,4.0,74,0.00,,,0.00,meteohub,2013-02-04 09:08:00,
2013-02-04 03:12:00,57.4,49.5,-100.00,South,180,2.0,4.0,75,0.00,,,0.00,meteohub,2013-02-04 09:12:00,
2013-02-04 03:17:00,57.4,49.5,-100.00,WSW,248,0.0,4.0,75,0.00,,,0.00,meteohub,2013-02-04 09:17:00,
2013-02-04 03:18:00,57.4,49.5,-100.00,South,180,0.0,4.0,75,0.00,,,0.00,meteohub,2013-02-04 09:18:00,
2013-02-04 03:22:00,57.4,49.5,-100.00,SSE,158,3.0,4.0,75,0.00,,,0.00,meteohub,2013-02-04 09:22:00,
2013-02-04 03:24:00,57.4,49.5,-100.00,South,180,4.0,4.0,75,0.00,,,0.00,meteohub,2013-02-04 09:24:00,
2013-02-04 03:30:00,57.6,49.6,-100.00,South,180,5.0,8.0,75,0.00,,,0.00,meteohub,2013-02-04 09:30:00,
2013-02-04 03:32:00,57.6,49.6,-100.00,South,180,5.0,8.0,75,0.00,,,0.00,meteohub,2013-02-04 09:32:00,
2013-02-04 03:36:00,57.7,49.8,-100.00,SW,225,2.0,8.0,75,0.00,,,0.00,meteohub,2013-02-04 09:36:00,
2013-02-04 03:38:00,57.7,50.2,-100.00,SSW,203,4.0,8.0,76,0.00,,,0.00,meteohub,2013-02-04 09:38:00,
2013-02-04 03:42:00,57.7,50.2,-100.00,South,180,4.0,6.0,76,0.00,,,0.00,meteohub,2013-02-04 09:42:00,
2013-02-04 03:44:00,57.7,50.2,-100.00,South,180,2.0,6.0,76,0.00,,,0.00,meteohub,2013-02-04 09:44:00,
2013-02-04 03:48:00,57.7,50.2,-100.00,SSE,158,3.0,5.0,76,0.00,,,0.00,meteohub,2013-02-04 09:48:00,
2013-02-04 03:52:00,57.7,50.2,-100.00,South,180,6.0,6.0,76,0.00,,,0.00,meteohub,2013-02-04 09:52:00,
2013-02-04 03:54:00,57.9,50.7,-100.00,SSW,203,3.0,4.0,77,0.00,,,0.00,meteohub,2013-02-04 09:54:00,
2013-02-04 03:58:00,57.9,50.7,-100.00,SSW,203,4.0,6.0,77,0.00,,,0.00,meteohub,2013-02-04 09:58:00,
2013-02-04 04:00:00,57.9,50.7,-100.00,SSW,203,4.0,6.0,77,0.00,,,0.00,meteohub,2013-02-04 10:00:00,
2013-02-04 04:05:00,57.9,50.7,-100.00,South,180,0.0,6.0,77,0.00,,,0.00,meteohub,2013-02-04 10:05:00,
2013-02-04 04:07:00,57.9,50.7,-100.00,SSW,203,5.0,6.0,77,0.00,,,0.00,meteohub,2013-02-04 10:07:00,
2013-02-04 04:09:00,57.9,50.7,-100.00,SSE,158,2.0,6.0,77,0.00,,,0.00,meteohub,2013-02-04 10:09:00,
2013-02-04 04:11:00,57.9,50.7,-100.00,SSE,158,2.0,5.0,77,0.00,,,0.00,meteohub,2013-02-04 10:11:00,
2013-02-04 04:13:00,57.9,50.7,-100.00,WSW,248,5.0,5.0,77,0.00,,,0.00,meteohub,2013-02-04 10:13:00,
2013-02-04 04:17:00,57.9,50.7,-100.00,South,180,4.0,5.0,77,0.00,,,0.00,meteohub,2013-02-04 10:17:00,
2013-02-04 04:19:00,57.9,50.7,-100.00,South,180,0.0,5.0,77,0.00,,,0.00,meteohub,2013-02-04 10:19:00,
2013-02-04 04:23:00,57.9,50.7,-100.00,SSW,203,4.0,5.0,77,0.00,,,0.00,meteohub,2013-02-04 10:23:00,
2013-02-04 04:29:00,57.9,50.7,-100.00,SSW,203,3.0,5.0,77,0.00,,,0.00,meteohub,2013-02-04 10:29:00,
2013-02-04 04:31:00,57.9,50.7,-100.00,WSW,248,1.0,4.0,77,0.00,,,0.00,meteohub,2013-02-04 10:31:00,
2013-02-04 04:32:00,57.9,50.7,-100.00,WSW,248,1.0,4.0,77,0.00,,,0.00,meteohub,2013-02-04 10:32:00,
2013-02-04 04:37:00,57.9,50.7,-100.00,SSW,203,0.0,4.0,77,0.00,,,0.00,meteohub,2013-02-04 10:37:00,
2013-02-04 04:39:00,57.9,50.7,-100.00,South,180,2.0,4.0,77,0.00,,,0.00,meteohub,2013-02-04 10:39:00,
2013-02-04 04:41:00,58.1,50.9,-100.00,South,180,1.0,3.0,77,0.00,,,0.00,meteohub,2013-02-04 10:41:00,
2013-02-04 04:43:00,57.9,50.7,-100.00,South,180,3.0,3.0,77,0.00,,,0.00,meteohub,2013-02-04 10:43:00,
2013-02-04 04:47:00,58.1,51.3,-100.00,SSW,203,2.0,3.0,78,0.00,,,0.00,meteohub,2013-02-04 10:47:00,
2013-02-04 04:51:00,58.1,51.3,-100.00,South,180,3.0,3.0,78,0.00,,,0.00,meteohub,2013-02-04 10:51:00,
2013-02-04 04:53:00,58.1,51.3,-100.00,SSE,158,3.0,3.0,78,0.00,,,0.00,meteohub,2013-02-04 10:53:00,
2013-02-04 04:55:00,58.1,51.3,-100.00,South,180,8.0,8.0,78,0.00,,,0.00,meteohub,2013-02-04 10:55:00,
2013-02-04 04:57:00,58.1,51.3,-100.00,SSE,158,3.0,8.0,78,0.00,,,0.00,meteohub,2013-02-04 10:57:00,
2013-02-04 04:59:00,58.1,51.3,-100.00,SSE,158,3.0,8.0,78,0.00,,,0.00,meteohub,2013-02-04 10:59:00,
2013-02-04 05:03:00,58.1,51.3,-100.00,South,180,3.0,8.0,78,0.00,,,0.00,meteohub,2013-02-04 11:03:00,
2013-02-04 05:07:00,58.1,51.3,-100.00,South,180,4.0,8.0,78,0.00,,,0.00,meteohub,2013-02-04 11:07:00,
2013-02-04 05:11:00,58.3,51.4,-100.00,SSE,158,4.0,8.0,78,0.00,,,0.00,meteohub,2013-02-04 11:11:00,
2013-02-04 05:13:00,58.3,51.4,-100.00,SSE,158,4.0,8.0,78,0.00,,,0.00,meteohub,2013-02-04 11:13:00,
2013-02-04 05:15:00,58.3,51.8,-100.00,SE,135,5.0,6.0,79,0.00,,,0.00,meteohub,2013-02-04 11:15:00,
2013-02-04 05:17:00,58.3,51.8,-100.00,SE,135,5.0,6.0,79,0.00,,,0.00,meteohub,2013-02-04 11:17:00,
2013-02-04 05:23:00,58.3,51.4,-100.00,SSW,203,2.0,6.0,78,0.00,,,0.00,meteohub,2013-02-04 11:23:00,
2013-02-04 05:25:00,58.3,51.4,-100.00,South,180,10.0,10.0,78,0.00,,,0.00,meteohub,2013-02-04 11:25:00,
2013-02-04 05:27:00,58.3,51.4,-100.00,SW,225,2.0,10.0,78,0.00,,,0.00,meteohub,2013-02-04 11:27:00,
2013-02-04 05:29:00,58.3,51.4,-100.00,NNW,338,0.0,10.0,78,0.00,,,0.00,meteohub,2013-02-04 11:29:00,
2013-02-04 05:32:00,58.3,51.4,-100.00,South,180,4.0,10.0,78,0.00,,,0.00,meteohub,2013-02-04 11:32:00,
2013-02-04 05:37:00,58.3,51.8,-100.00,South,180,4.0,10.0,79,0.00,,,0.00,meteohub,2013-02-04 11:37:00,
2013-02-04 05:41:00,58.3,51.8,-100.00,South,180,3.0,10.0,79,0.00,,,0.00,meteohub,2013-02-04 11:41:00,
2013-02-04 05:45:00,58.5,52.0,-100.00,South,180,2.0,4.0,79,0.00,,,0.00,meteohub,2013-02-04 11:45:00,
2013-02-04 05:47:00,58.5,51.6,-100.00,SW,225,1.0,4.0,78,0.00,,,0.00,meteohub,2013-02-04 11:47:00,
2013-02-04 05:49:00,58.5,51.6,-100.00,SW,225,1.0,4.0,78,0.00,,,0.00,meteohub,2013-02-04 11:49:00,
2013-02-04 05:55:00,58.5,51.6,-100.00,West,270,0.0,7.0,78,0.00,,,0.00,meteohub,2013-02-04 11:55:00,
2013-02-04 05:57:00,58.5,51.6,-100.00,SSW,203,11.0,11.0,78,0.00,,,0.00,meteohub,2013-02-04 11:57:00,
2013-02-04 06:01:00,58.5,52.0,-100.00,SSW,203,3.0,11.0,79,0.00,,,0.00,meteohub,2013-02-04 12:01:00,
2013-02-04 06:03:00,58.5,52.0,-100.00,SSW,203,3.0,11.0,79,0.00,,,0.00,meteohub,2013-02-04 12:03:00,
2013-02-04 06:05:00,58.5,52.0,-100.00,SW,225,0.0,11.0,79,0.00,,,0.00,meteohub,2013-02-04 12:05:00,
2013-02-04 06:07:00,58.5,52.0,-100.00,South,180,1.0,11.0,79,0.00,,,0.00,meteohub,2013-02-04 12:07:00,
2013-02-04 06:09:00,58.6,52.2,-100.00,SSW,203,2.0,11.0,79,0.00,,,0.00,meteohub,2013-02-04 12:09:00,
2013-02-04 06:13:00,58.6,52.2,-100.00,SSW,203,2.0,11.0,79,0.00,,,0.00,meteohub,2013-02-04 12:13:00,
2013-02-04 06:15:00,58.6,52.2,-100.00,South,180,0.0,3.0,79,0.00,,,0.00,meteohub,2013-02-04 12:15:00,
2013-02-04 06:17:00,58.6,52.2,-100.00,South,180,0.0,3.0,79,0.00,,,0.00,meteohub,2013-02-04 12:17:00,
2013-02-04 06:19:00,58.5,52.0,-100.00,SW,225,1.0,3.0,79,0.00,,,0.00,meteohub,2013-02-04 12:19:00,
2013-02-04 06:23:00,58.6,52.2,-100.00,West,270,0.0,3.0,79,0.00,,,0.00,meteohub,2013-02-04 12:23:00,
2013-02-04 06:25:00,58.6,52.2,-100.00,SSE,158,3.0,3.0,79,0.00,,,0.00,meteohub,2013-02-04 12:25:00,
2013-02-04 06:27:00,58.6,52.2,-100.00,South,180,0.0,3.0,79,0.00,,,0.00,meteohub,2013-02-04 12:27:00,
2013-02-04 06:31:00,58.6,52.2,-100.00,SSE,158,3.0,3.0,79,0.00,,,0.00,meteohub,2013-02-04 12:31:00,
2013-02-04 06:33:00,58.6,52.2,-100.00,SSE,158,3.0,3.0,79,0.00,,,0.00,meteohub,2013-02-04 12:33:00,
2013-02-04 06:35:00,58.6,52.2,-100.00,South,180,3.0,3.0,79,0.00,,,0.00,meteohub,2013-02-04 12:35:00,
2013-02-04 06:39:00,58.6,52.2,-100.00,SSW,203,2.0,3.0,79,0.00,,,0.00,meteohub,2013-02-04 12:39:00,
2013-02-04 06:45:00,58.6,52.2,-100.00,South,180,2.0,4.0,79,0.00,,,0.00,meteohub,2013-02-04 12:45:00,
2013-02-04 06:47:00,58.6,52.2,-100.00,South,180,2.0,4.0,79,0.00,,,0.00,meteohub,2013-02-04 12:47:00,
2013-02-04 06:52:00,58.6,52.2,-100.00,SW,225,1.0,4.0,79,0.00,,,0.00,meteohub,2013-02-04 12:52:00,
2013-02-04 06:58:00,58.6,52.2,-100.00,ESE,113,2.0,2.0,79,0.00,,,0.00,meteohub,2013-02-04 12:58:00,
2013-02-04 07:02:00,58.6,52.2,-100.00,SW,225,2.0,2.0,79,0.00,,,0.00,meteohub,2013-02-04 13:02:00,
2013-02-04 07:06:00,58.6,52.2,-100.00,SSE,158,2.0,4.0,79,0.00,,,0.00,meteohub,2013-02-04 13:06:00,
2013-02-04 07:10:00,58.6,52.2,-100.00,SSE,158,3.0,4.0,79,0.00,,,0.00,meteohub,2013-02-04 13:10:00,
2013-02-04 07:16:00,58.5,52.3,-100.00,SSW,203,1.0,4.0,80,0.00,,,0.00,meteohub,2013-02-04 13:16:00,
2013-02-04 07:18:00,58.5,52.3,-100.00,South,180,0.0,4.0,80,0.00,,,0.00,meteohub,2013-02-04 13:18:00,
2013-02-04 07:22:00,58.3,52.2,-100.00,South,180,2.0,4.0,80,0.00,,,0.00,meteohub,2013-02-04 13:22:00,
2013-02-04 07:24:00,58.3,52.5,-100.00,SSW,203,2.0,4.0,81,0.00,,,0.00,meteohub,2013-02-04 13:24:00,
2013-02-04 07:28:00,58.1,52.3,-100.00,SSE,158,2.0,4.0,81,0.00,,,0.00,meteohub,2013-02-04 13:28:00,
2013-02-04 07:30:00,58.1,52.3,-100.00,SE,135,4.0,4.0,81,0.00,,,0.00,meteohub,2013-02-04 13:30:00,
2013-02-04 07:32:00,58.1,52.3,-100.00,SE,135,4.0,4.0,81,0.00,,,0.00,meteohub,2013-02-04 13:32:00,
2013-02-04 07:38:00,57.9,52.7,-100.00,South,180,2.0,4.0,83,0.00,,,0.00,meteohub,2013-02-04 13:38:00,
2013-02-04 07:40:00,57.7,52.7,-100.00,SSE,158,2.0,4.0,83,0.00,,,0.00,meteohub,2013-02-04 13:40:00,
2013-02-04 07:42:00,57.7,52.7,-100.00,SSE,158,3.0,4.0,83,0.00,,,0.00,meteohub,2013-02-04 13:42:00,
2013-02-04 07:46:00,57.6,52.5,-100.00,SW,225,3.0,4.0,83,0.00,,,0.00,meteohub,2013-02-04 13:46:00,
2013-02-04 07:47:00,57.6,52.5,-100.00,SW,225,3.0,4.0,83,0.00,,,0.00,meteohub,2013-02-04 13:47:00,
2013-02-04 07:48:00,57.7,52.7,-100.00,North,0,2.0,4.0,83,0.00,,,0.00,meteohub,2013-02-04 13:48:00,
2013-02-04 07:54:00,57.6,52.5,-100.00,WNW,293,1.0,4.0,83,0.00,,,0.00,meteohub,2013-02-04 13:54:00,
2013-02-04 07:58:00,57.6,52.5,-100.00,South,180,5.0,5.0,83,0.00,,,0.00,meteohub,2013-02-04 13:58:00,
2013-02-04 08:00:00,57.6,52.5,-100.00,SSW,203,2.0,3.0,83,0.00,,,0.00,meteohub,2013-02-04 14:00:00,
2013-02-04 08:04:00,57.6,52.7,-100.00,SSW,203,2.0,3.0,84,0.00,,,0.00,meteohub,2013-02-04 14:04:00,
2013-02-04 08:06:00,57.6,52.7,-100.00,SSW,203,0.0,5.0,84,0.00,,,0.00,meteohub,2013-02-04 14:06:00,
2013-02-04 08:10:00,57.6,52.5,-100.00,SW,225,2.0,5.0,83,0.00,,,0.00,meteohub,2013-02-04 14:10:00,
2013-02-04 08:12:00,57.6,52.7,-100.00,ESE,113,0.0,5.0,84,0.00,,,0.00,meteohub,2013-02-04 14:12:00,
2013-02-04 08:17:00,57.7,52.9,-100.00,SE,135,1.0,2.0,84,0.00,,,0.00,meteohub,2013-02-04 14:17:00,
2013-02-04 08:18:00,57.7,52.9,-100.00,SE,135,2.0,2.0,84,0.00,,,0.00,meteohub,2013-02-04 14:18:00,
2013-02-04 08:22:00,57.7,52.9,-100.00,SSW,203,4.0,4.0,84,0.00,,,0.00,meteohub,2013-02-04 14:22:00,
2013-02-04 08:24:00,57.7,52.9,-100.00,NW,315,0.0,2.0,84,0.00,,,0.00,meteohub,2013-02-04 14:24:00,
2013-02-04 08:26:00,57.7,52.9,-100.00,SSW,203,7.0,7.0,84,0.00,,,0.00,meteohub,2013-02-04 14:26:00,
2013-02-04 08:28:00,57.7,52.9,-100.00,South,180,4.0,4.0,84,0.00,,,0.00,meteohub,2013-02-04 14:28:00,
2013-02-04 08:30:00,57.7,52.9,-100.00,SSW,203,1.0,7.0,84,0.00,,,0.00,meteohub,2013-02-04 14:30:00,
2013-02-04 08:32:00,57.7,52.9,-100.00,SSW,203,1.0,7.0,84,0.00,,,0.00,meteohub,2013-02-04 14:32:00,
2013-02-04 08:34:00,57.9,53.1,-100.00,SSW,203,6.0,7.0,84,0.00,,,0.00,meteohub,2013-02-04 14:34:00,
2013-02-04 08:38:00,57.9,53.1,-100.00,SSW,203,1.0,7.0,84,0.00,,,0.00,meteohub,2013-02-04 14:38:00,
2013-02-04 08:44:00,57.9,53.1,-100.00,SW,225,5.0,7.0,84,0.00,,,0.00,meteohub,2013-02-04 14:44:00,
2013-02-04 08:47:00,57.9,53.1,-100.00,SSW,203,0.0,6.0,84,0.00,,,0.00,meteohub,2013-02-04 14:47:00,
2013-02-04 08:50:00,58.1,53.6,-100.00,SSW,203,9.0,9.0,85,0.00,,,0.00,meteohub,2013-02-04 14:50:00,
2013-02-04 08:52:00,58.1,53.6,-100.00,South,180,5.0,6.0,85,0.00,,,0.00,meteohub,2013-02-04 14:52:00,
2013-02-04 08:54:00,58.1,53.6,-100.00,SSW,203,4.0,6.0,85,0.00,,,0.00,meteohub,2013-02-04 14:54:00,
2013-02-04 09:00:00,58.3,53.8,-100.00,ENE,68,1.0,9.0,85,0.00,,,0.00,meteohub,2013-02-04 15:00:00,
2013-02-04 09:02:00,58.3,53.8,-100.00,ENE,68,1.0,9.0,85,0.00,,,0.00,meteohub,2013-02-04 15:02:00,
2013-02-04 09:04:00,58.6,54.1,-100.00,SE,135,2.0,9.0,85,0.00,,,0.00,meteohub,2013-02-04 15:04:00,
2013-02-04 09:06:00,58.6,54.1,-100.00,SSW,203,0.0,9.0,85,0.00,,,0.00,meteohub,2013-02-04 15:06:00,
2013-02-04 09:08:00,58.6,54.1,-100.00,SSW,203,0.0,9.0,85,0.00,,,0.00,meteohub,2013-02-04 15:08:00,
2013-02-04 09:12:00,58.8,54.3,-100.00,SSE,158,0.0,4.0,85,0.00,,,0.00,meteohub,2013-02-04 15:12:00,
2013-02-04 09:14:00,58.8,54.0,-100.00,South,180,0.0,4.0,84,0.00,,,0.00,meteohub,2013-02-04 15:14:00,
2013-02-04 09:16:00,58.8,54.0,-100.00,SE,135,0.0,2.0,84,0.00,,,0.00,meteohub,2013-02-04 15:16:00,
2013-02-04 09:18:00,59.0,54.1,-100.00,WNW,293,0.0,2.0,84,0.00,,,0.00,meteohub,2013-02-04 15:18:00,
2013-02-04 09:20:00,59.0,54.1,-100.00,WSW,248,0.0,2.0,84,0.00,,,0.00,meteohub,2013-02-04 15:20:00,
2013-02-04 09:22:00,59.2,54.3,-100.00,SSE,158,0.0,2.0,84,0.00,,,0.00,meteohub,2013-02-04 15:22:00,
2013-02-04 09:24:00,59.2,54.3,-100.00,South,180,3.0,3.0,84,0.00,,,0.00,meteohub,2013-02-04 15:24:00,
2013-02-04 09:26:00,59.2,54.3,-100.00,South,180,2.0,2.0,84,0.00,,,0.00,meteohub,2013-02-04 15:26:00,
2013-02-04 09:30:00,59.4,54.5,-100.00,SSE,158,2.0,3.0,84,0.00,,,0.00,meteohub,2013-02-04 15:30:00,
2013-02-04 09:32:00,59.4,54.5,-100.00,SSE,158,2.0,3.0,84,0.00,,,0.00,meteohub,2013-02-04 15:32:00,
2013-02-04 09:38:00,59.5,54.7,-100.00,SSW,203,1.0,3.0,84,0.00,,,0.00,meteohub,2013-02-04 15:38:00,
2013-02-04 09:42:00,59.5,54.7,-100.00,West,270,0.0,3.0,84,0.00,,,0.00,meteohub,2013-02-04 15:42:00,
2013-02-04 09:44:00,59.7,54.9,-100.00,West,270,0.0,3.0,84,0.00,,,0.00,meteohub,2013-02-04 15:44:00,
2013-02-04 09:46:00,59.7,54.9,-100.00,SW,225,1.0,2.0,84,0.00,,,0.00,meteohub,2013-02-04 15:46:00,
2013-02-04 09:48:00,59.7,54.9,-100.00,SSW,203,2.0,2.0,84,0.00,,,0.00,meteohub,2013-02-04 15:48:00,
2013-02-04 09:53:00,59.9,55.0,-100.00,West,270,1.0,2.0,84,0.00,,,0.00,meteohub,2013-02-04 15:53:00,
2013-02-04 09:55:00,59.9,55.0,-100.00,WSW,248,2.0,2.0,84,0.00,,,0.00,meteohub,2013-02-04 15:55:00,
2013-02-04 09:59:00,60.1,54.9,-100.00,SSW,203,0.0,2.0,83,0.00,,,0.00,meteohub,2013-02-04 15:59:00,
2013-02-04 10:01:00,60.3,55.0,-100.00,SSW,203,0.0,2.0,83,0.00,,,0.00,meteohub,2013-02-04 16:01:00,
2013-02-04 10:02:00,60.3,55.0,-100.00,SSW,203,0.0,2.0,83,0.00,,,0.00,meteohub,2013-02-04 16:02:00,
2013-02-04 10:03:00,60.3,55.0,-100.00,South,180,2.0,2.0,83,0.00,,,0.00,meteohub,2013-02-04 16:03:00,
2013-02-04 10:07:00,60.4,55.2,-100.00,WSW,248,1.0,2.0,83,0.00,,,0.00,meteohub,2013-02-04 16:07:00,
2013-02-04 10:09:00,60.6,55.4,-100.00,SW,225,2.0,2.0,83,0.00,,,0.00,meteohub,2013-02-04 16:09:00,
2013-02-04 10:15:00,60.6,55.4,-100.00,SSW,203,2.0,2.0,83,0.00,,,0.00,meteohub,2013-02-04 16:15:00,
2013-02-04 10:17:00,60.6,55.4,-100.00,South,180,3.0,3.0,83,0.00,,,0.00,meteohub,2013-02-04 16:17:00,
2013-02-04 10:19:00,61.0,55.8,-100.00,WSW,248,0.0,2.0,83,0.00,,,0.00,meteohub,2013-02-04 16:19:00,
2013-02-04 10:21:00,61.0,55.8,-100.00,West,270,1.0,3.0,83,0.00,,,0.00,meteohub,2013-02-04 16:21:00,
2013-02-04 10:23:00,61.0,55.4,-100.00,WSW,248,1.0,3.0,82,0.00,,,0.00,meteohub,2013-02-04 16:23:00,
2013-02-04 10:29:00,61.2,55.6,-100.00,SW,225,2.0,4.0,82,0.00,,,0.00,meteohub,2013-02-04 16:29:00,
2013-02-04 10:31:00,61.3,55.8,-100.00,SSW,203,2.0,4.0,82,0.00,,,0.00,meteohub,2013-02-04 16:31:00,
2013-02-04 10:32:00,61.3,55.8,-100.00,SSW,203,2.0,4.0,82,0.00,,,0.00,meteohub,2013-02-04 16:32:00,
2013-02-04 10:37:00,61.5,55.9,-100.00,SSW,203,2.0,4.0,82,0.00,,,0.00,meteohub,2013-02-04 16:37:00,
2013-02-04 10:39:00,61.7,56.1,-100.00,South,180,4.0,4.0,82,0.00,,,0.00,meteohub,2013-02-04 16:39:00,
2013-02-04 10:45:00,62.2,56.7,-100.00,South,180,2.0,5.0,82,0.00,,,0.00,meteohub,2013-02-04 16:45:00,
2013-02-04 10:47:00,62.2,56.7,-100.00,South,180,2.0,5.0,82,0.00,,,0.00,meteohub,2013-02-04 16:47:00,
2013-02-04 10:49:00,62.2,56.3,-100.00,South,180,3.0,5.0,81,0.00,,,0.00,meteohub,2013-02-04 16:49:00,
2013-02-04 10:51:00,62.2,56.3,-100.00,WSW,248,1.0,5.0,81,0.00,,,0.00,meteohub,2013-02-04 16:51:00,
2013-02-04 10:53:00,62.4,56.1,-100.00,West,270,1.0,5.0,80,0.00,,,0.00,meteohub,2013-02-04 16:53:00,
2013-02-04 10:57:00,62.6,56.7,-100.00,SSW,203,4.0,5.0,81,0.00,,,0.00,meteohub,2013-02-04 16:57:00,
2013-02-04 10:59:00,62.8,56.8,-100.00,WSW,248,1.0,5.0,81,0.00,,,0.00,meteohub,2013-02-04 16:59:00,
2013-02-04 11:03:00,63.1,56.8,-100.00,West,270,2.0,4.0,80,0.00,,,0.00,meteohub,2013-02-04 17:03:00,
2013-02-04 11:05:00,63.1,56.8,-100.00,West,270,2.0,4.0,80,0.00,,,0.00,meteohub,2013-02-04 17:05:00,
2013-02-04 11:09:00,63.3,56.7,-100.00,SSE,158,1.0,4.0,79,0.00,,,0.00,meteohub,2013-02-04 17:09:00,
2013-02-04 11:11:00,63.5,56.8,-100.00,WSW,248,0.0,4.0,79,0.00,,,0.00,meteohub,2013-02-04 17:11:00,
2013-02-04 11:15:00,63.5,56.8,-100.00,West,270,0.0,4.0,79,0.00,,,0.00,meteohub,2013-02-04 17:15:00,
2013-02-04 11:17:00,63.5,56.8,-100.00,West,270,0.0,4.0,79,0.00,,,0.00,meteohub,2013-02-04 17:17:00,
2013-02-04 11:19:00,63.7,57.0,-100.00,WSW,248,1.0,4.0,79,0.00,,,0.00,meteohub,2013-02-04 17:19:00,
2013-02-04 11:21:00,63.7,56.7,-100.00,WSW,248,2.0,2.0,78,0.00,,,0.00,meteohub,2013-02-04 17:21:00,
2013-02-04 11:25:00,64.0,57.0,-100.00,South,180,4.0,4.0,78,0.00,,,0.00,meteohub,2013-02-04 17:25:00,
2013-02-04 11:27:00,64.0,57.0,-100.00,South,180,5.0,5.0,78,0.00,,,0.00,meteohub,2013-02-04 17:27:00,
2013-02-04 11:29:00,64.0,56.7,-100.00,West,270,3.0,4.0,77,0.00,,,0.00,meteohub,2013-02-04 17:29:00,
2013-02-04 11:31:00,64.0,56.7,-100.00,West,270,2.0,5.0,77,0.00,,,0.00,meteohub,2013-02-04 17:31:00,
2013-02-04 11:37:00,64.2,56.5,-100.00,West,270,3.0,5.0,76,0.00,,,0.00,meteohub,2013-02-04 17:37:00,
2013-02-04 11:41:00,64.2,56.5,-100.00,South,180,5.0,5.0,76,0.00,,,0.00,meteohub,2013-02-04 17:41:00,
2013-02-04 11:43:00,64.2,56.5,-100.00,North,0,2.0,5.0,76,0.00,,,0.00,meteohub,2013-02-04 17:43:00,
2013-02-04 11:49:00,64.6,56.8,-100.00,SW,225,1.0,5.0,76,0.00,,,0.00,meteohub,2013-02-04 17:49:00,
2013-02-04 11:51:00,64.6,56.5,-100.00,SW,225,2.0,5.0,75,0.00,,,0.00,meteohub,2013-02-04 17:51:00,
2013-02-04 11:53:00,64.6,56.5,-100.00,SW,225,2.0,5.0,75,0.00,,,0.00,meteohub,2013-02-04 17:53:00,
2013-02-04 11:59:00,64.6,56.5,-100.00,WSW,248,1.0,5.0,75,0.00,,,0.00,meteohub,2013-02-04 17:59:00,
2013-02-04 12:01:00,64.9,56.8,-100.00,South,180,3.0,3.0,75,0.00,,,0.00,meteohub,2013-02-04 18:01:00,
2013-02-04 12:02:00,64.9,56.8,-100.00,South,180,3.0,3.0,75,0.00,,,0.00,meteohub,2013-02-04 18:02:00,
2013-02-04 12:07:00,65.3,56.8,-100.00,SSE,158,3.0,3.0,74,0.00,,,0.00,meteohub,2013-02-04 18:07:00,
2013-02-04 12:13:00,66.4,57.4,-100.00,NW,315,0.0,3.0,73,0.00,,,0.00,meteohub,2013-02-04 18:13:00,
2013-02-04 12:15:00,66.6,57.6,-100.00,WNW,293,3.0,3.0,73,0.00,,,0.00,meteohub,2013-02-04 18:15:00,
2013-02-04 12:17:00,66.6,57.6,-100.00,WNW,293,3.0,3.0,73,0.00,,,0.00,meteohub,2013-02-04 18:17:00,
2013-02-04 12:19:00,66.7,57.4,-100.00,West,270,0.0,3.0,72,0.00,,,0.00,meteohub,2013-02-04 18:19:00,
2013-02-04 12:23:00,66.9,57.6,-100.00,WSW,248,3.0,3.0,72,0.00,,,0.00,meteohub,2013-02-04 18:23:00,
2013-02-04 12:25:00,67.3,57.9,-100.00,SE,135,4.0,4.0,72,0.00,,,0.00,meteohub,2013-02-04 18:25:00,
2013-02-04 12:27:00,67.3,57.9,-100.00,SE,135,4.0,4.0,72,0.00,,,0.00,meteohub,2013-02-04 18:27:00,
2013-02-04 12:33:00,68.7,58.5,-100.00,East,90,1.0,4.0,70,0.00,,,0.00,meteohub,2013-02-04 18:33:00,
2013-02-04 12:35:00,69.4,59.2,-100.00,NNW,338,4.0,4.0,70,0.00,,,0.00,meteohub,2013-02-04 18:35:00,
2013-02-04 12:37:00,70.0,59.0,-100.00,WNW,293,4.0,4.0,68,0.00,,,0.00,meteohub,2013-02-04 18:37:00,
2013-02-04 12:41:00,70.5,58.6,-100.00,WNW,293,1.0,4.0,66,0.00,,,0.00,meteohub,2013-02-04 18:41:00,
2013-02-04 12:47:00,71.2,58.8,-100.00,WSW,248,0.0,4.0,65,0.00,,,0.00,meteohub,2013-02-04 18:47:00,
2013-02-04 12:50:00,71.4,58.1,-100.00,West,270,3.0,4.0,63,0.00,,,0.00,meteohub,2013-02-04 18:50:00,
2013-02-04 12:52:00,71.8,58.5,-100.00,WSW,248,2.0,4.0,63,0.00,,,0.00,meteohub,2013-02-04 18:52:00,
2013-02-04 12:56:00,72.3,58.6,-100.00,WNW,293,1.0,3.0,62,0.00,,,0.00,meteohub,2013-02-04 18:56:00,
2013-02-04 12:58:00,72.5,58.3,-100.00,WSW,248,2.0,3.0,61,0.00,,,0.00,meteohub,2013-02-04 18:58:00,
2013-02-04 13:00:00,72.5,58.3,-100.00,WSW,248,2.0,3.0,61,0.00,,,0.00,meteohub,2013-02-04 19:00:00,
2013-02-04 13:02:00,73.0,58.8,-100.00,West,270,2.0,3.0,61,0.00,,,0.00,meteohub,2013-02-04 19:02:00,
2013-02-04 13:04:00,73.2,59.0,-100.00,SSW,203,2.0,3.0,61,0.00,,,0.00,meteohub,2013-02-04 19:04:00,
2013-02-04 13:08:00,73.9,58.6,-100.00,SSW,203,4.0,4.0,59,0.00,,,0.00,meteohub,2013-02-04 19:08:00,
2013-02-04 13:10:00,74.1,58.5,-100.00,SSE,158,0.0,4.0,58,0.00,,,0.00,meteohub,2013-02-04 19:10:00,
2013-02-04 13:14:00,74.8,59.0,-100.00,South,180,1.0,4.0,58,0.00,,,0.00,meteohub,2013-02-04 19:14:00,
2013-02-04 13:16:00,75.0,59.2,-100.00,SSE,158,0.0,4.0,58,0.00,,,0.00,meteohub,2013-02-04 19:16:00,
2013-02-04 13:20:00,75.4,58.6,-100.00,South,180,2.0,4.0,56,0.00,,,0.00,meteohub,2013-02-04 19:20:00,
2013-02-04 13:22:00,75.6,58.8,-100.00,West,270,0.0,4.0,56,0.00,,,0.00,meteohub,2013-02-04 19:22:00,
2013-02-04 13:24:00,75.7,59.0,-100.00,SW,225,0.0,4.0,56,0.00,,,0.00,meteohub,2013-02-04 19:24:00,
2013-02-04 13:28:00,75.9,58.6,-100.00,SW,225,3.0,3.0,55,0.00,,,0.00,meteohub,2013-02-04 19:28:00,
2013-02-04 13:32:00,75.7,58.5,-100.00,West,270,2.0,3.0,55,0.00,,,0.00,meteohub,2013-02-04 19:32:00,
2013-02-04 13:38:00,75.7,58.5,-100.00,SE,135,1.0,3.0,55,0.00,,,0.00,meteohub,2013-02-04 19:38:00,
2013-02-04 13:40:00,75.9,58.1,-100.00,SE,135,2.0,4.0,54,0.00,,,0.00,meteohub,2013-02-04 19:40:00,
2013-02-04 13:46:00,75.7,57.9,-100.00,West,270,0.0,4.0,54,0.00,,,0.00,meteohub,2013-02-04 19:46:00,
2013-02-04 13:47:00,75.7,57.9,-100.00,West,270,0.0,4.0,54,0.00,,,0.00,meteohub,2013-02-04 19:47:00,
2013-02-04 13:48:00,75.7,57.9,-100.00,West,270,2.0,4.0,54,0.00,,,0.00,meteohub,2013-02-04 19:48:00,
2013-02-04 13:50:00,75.9,58.1,-100.00,WSW,248,0.0,3.0,54,0.00,,,0.00,meteohub,2013-02-04 19:50:00,
2013-02-04 13:54:00,76.5,58.6,-100.00,WSW,248,2.0,3.0,54,0.00,,,0.00,meteohub,2013-02-04 19:54:00,
2013-02-04 14:00:00,76.8,57.9,-100.00,SSW,203,1.0,2.0,52,0.00,,,0.00,meteohub,2013-02-04 20:00:00,
2013-02-04 14:02:00,76.8,57.9,-100.00,SSW,203,1.0,2.0,52,0.00,,,0.00,meteohub,2013-02-04 20:02:00,
2013-02-04 14:08:00,76.8,57.9,-100.00,South,180,1.0,3.0,52,0.00,,,0.00,meteohub,2013-02-04 20:08:00,
2013-02-04 14:14:00,77.2,57.7,-100.00,South,180,1.0,4.0,51,0.00,,,0.00,meteohub,2013-02-04 20:14:00,
2013-02-04 14:17:00,77.4,57.7,-100.00,SSW,203,1.0,4.0,51,0.00,,,0.00,meteohub,2013-02-04 20:17:00,
2013-02-04 14:20:00,77.5,57.4,-100.00,SE,135,2.0,4.0,50,0.00,,,0.00,meteohub,2013-02-04 20:20:00,
2013-02-04 14:24:00,77.5,57.4,-100.00,West,270,0.0,4.0,50,0.00,,,0.00,meteohub,2013-02-04 20:24:00,
2013-02-04 14:26:00,77.7,57.6,-100.00,West,270,2.0,2.0,50,0.00,,,0.00,meteohub,2013-02-04 20:26:00,
2013-02-04 14:32:00,77.9,57.2,-100.00,SE,135,1.0,2.0,49,0.00,,,0.00,meteohub,2013-02-04 20:32:00,
2013-02-04 14:38:00,78.6,57.2,-100.00,NNW,338,0.0,2.0,48,0.00,,,0.00,meteohub,2013-02-04 20:38:00,
2013-02-04 14:40:00,78.6,57.2,-100.00,NNW,338,0.0,2.0,48,0.00,,,0.00,meteohub,2013-02-04 20:40:00,
2013-02-04 14:44:00,79.0,57.6,-100.00,West,270,4.0,4.0,48,0.00,,,0.00,meteohub,2013-02-04 20:44:00,
2013-02-04 14:47:00,79.3,57.4,-100.00,WNW,293,3.0,4.0,47,0.00,,,0.00,meteohub,2013-02-04 20:47:00,
2013-02-04 14:48:00,79.3,57.4,-100.00,WNW,293,3.0,4.0,47,0.00,,,0.00,meteohub,2013-02-04 20:48:00,
2013-02-04 14:52:00,79.5,57.6,-100.00,NW,315,0.0,4.0,47,0.00,,,0.00,meteohub,2013-02-04 20:52:00,
2013-02-04 14:54:00,79.7,57.0,-100.00,South,180,1.0,4.0,46,0.00,,,0.00,meteohub,2013-02-04 20:54:00,
2013-02-04 14:56:00,79.9,57.2,-100.00,ESE,113,1.0,4.0,46,0.00,,,0.00,meteohub,2013-02-04 20:56:00,
2013-02-04 15:00:00,80.1,56.1,-100.00,SSW,203,2.0,3.0,44,0.00,,,0.00,meteohub,2013-02-04 21:00:00,
2013-02-04 15:02:00,79.9,55.9,-100.00,West,270,0.0,3.0,44,0.00,,,0.00,meteohub,2013-02-04 21:02:00,
2013-02-04 15:08:00,79.7,55.9,-100.00,NE,45,1.0,2.0,44,0.00,,,0.00,meteohub,2013-02-04 21:08:00,
2013-02-04 15:10:00,79.5,55.8,-100.00,South,180,2.0,4.0,44,0.00,,,0.00,meteohub,2013-02-04 21:10:00,
2013-02-04 15:14:00,79.0,54.5,-100.00,South,180,3.0,4.0,43,0.00,,,0.00,meteohub,2013-02-04 21:14:00,
2013-02-04 15:16:00,79.0,54.5,-100.00,South,180,3.0,4.0,43,0.00,,,0.00,meteohub,2013-02-04 21:16:00,
2013-02-04 15:20:00,78.6,54.3,-100.00,West,270,1.0,4.0,43,0.00,,,0.00,meteohub,2013-02-04 21:20:00,
2013-02-04 15:22:00,78.4,54.7,-100.00,SSE,158,0.0,4.0,44,0.00,,,0.00,meteohub,2013-02-04 21:22:00,
2013-02-04 15:26:00,78.4,54.7,-100.00,SSE,158,1.0,3.0,44,0.00,,,0.00,meteohub,2013-02-04 21:26:00,
2013-02-04 15:28:00,78.4,54.7,-100.00,SSW,203,1.0,3.0,44,0.00,,,0.00,meteohub,2013-02-04 21:28:00,
2013-02-04 15:32:00,78.4,54.7,-100.00,SSW,203,1.0,3.0,44,0.00,,,0.00,meteohub,2013-02-04 21:32:00,
2013-02-04 15:34:00,78.4,54.1,-100.00,SSW,203,2.0,3.0,43,0.00,,,0.00,meteohub,2013-02-04 21:34:00,
2013-02-04 15:36:00,78.1,53.8,-100.00,South,180,0.0,1.0,43,0.00,,,0.00,meteohub,2013-02-04 21:36:00,
2013-02-04 15:39:00,78.1,53.8,-100.00,SSW,203,0.0,1.0,43,0.00,,,0.00,meteohub,2013-02-04 21:39:00,
2013-02-04 15:41:00,77.9,54.3,-100.00,SE,135,6.0,6.0,44,0.00,,,0.00,meteohub,2013-02-04 21:41:00,
2013-02-04 15:47:00,77.5,54.0,-100.00,SSW,203,3.0,6.0,44,0.00,,,0.00,meteohub,2013-02-04 21:47:00,
2013-02-04 15:49:00,77.4,53.8,-100.00,WSW,248,1.0,6.0,44,0.00,,,0.00,meteohub,2013-02-04 21:49:00,
2013-02-04 15:55:00,77.4,53.8,-100.00,WNW,293,0.0,6.0,44,0.00,,,0.00,meteohub,2013-02-04 21:55:00,
2013-02-04 15:57:00,77.2,53.6,-100.00,South,180,2.0,6.0,44,0.00,,,0.00,meteohub,2013-02-04 21:57:00,
2013-02-04 15:59:00,77.2,53.6,-100.00,South,180,2.0,6.0,44,0.00,,,0.00,meteohub,2013-02-04 21:59:00,
2013-02-04 16:03:00,77.2,53.6,-100.00,WSW,248,2.0,3.0,44,0.00,,,0.00,meteohub,2013-02-04 22:03:00,
2013-02-04 16:07:00,77.2,52.9,-100.00,South,180,2.0,2.0,43,0.00,,,0.00,meteohub,2013-02-04 22:07:00,
2013-02-04 16:11:00,77.2,52.9,-100.00,SSW,203,1.0,2.0,43,0.00,,,0.00,meteohub,2013-02-04 22:11:00,
2013-02-04 16:17:00,76.8,52.7,-100.00,ESE,113,0.0,2.0,43,0.00,,,0.00,meteohub,2013-02-04 22:17:00,
2013-02-04 16:23:00,76.6,52.5,-100.00,SSW,203,2.0,2.0,43,0.00,,,0.00,meteohub,2013-02-04 22:23:00,
2013-02-04 16:25:00,76.6,52.5,-100.00,South,180,2.0,2.0,43,0.00,,,0.00,meteohub,2013-02-04 22:25:00,
2013-02-04 16:29:00,76.5,52.9,-100.00,West,270,4.0,4.0,44,0.00,,,0.00,meteohub,2013-02-04 22:29:00,
2013-02-04 16:31:00,76.3,52.7,-100.00,South,180,0.0,4.0,44,0.00,,,0.00,meteohub,2013-02-04 22:31:00,
2013-02-04 16:32:00,76.3,52.7,-100.00,South,180,0.0,4.0,44,0.00,,,0.00,meteohub,2013-02-04 22:32:00,
2013-02-04 16:37:00,75.9,52.5,-100.00,WNW,293,2.0,4.0,44,0.00,,,0.00,meteohub,2013-02-04 22:37:00,
2013-02-04 16:39:00,75.9,52.5,-100.00,ESE,113,4.0,4.0,44,0.00,,,0.00,meteohub,2013-02-04 22:39:00,
2013-02-04 16:45:00,75.6,52.2,-100.00,SW,225,0.0,4.0,44,0.00,,,0.00,meteohub,2013-02-04 22:45:00,
2013-02-04 16:47:00,75.4,52.5,-100.00,South,180,1.0,4.0,45,0.00,,,0.00,meteohub,2013-02-04 22:47:00,
2013-02-04 16:49:00,75.2,52.3,-100.00,SSE,158,0.0,4.0,45,0.00,,,0.00,meteohub,2013-02-04 22:49:00,
2013-02-04 16:53:00,75.0,52.2,-100.00,SSE,158,0.0,4.0,45,0.00,,,0.00,meteohub,2013-02-04 22:53:00,
2013-02-04 16:57:00,75.0,52.2,-100.00,East,90,0.0,2.0,45,0.00,,,0.00,meteohub,2013-02-04 22:57:00,
2013-02-04 17:01:00,74.8,52.2,-100.00,South,180,1.0,1.0,45,0.00,,,0.00,meteohub,2013-02-04 23:01:00,
2013-02-04 17:03:00,74.8,52.2,-100.00,South,180,1.0,1.0,45,0.00,,,0.00,meteohub,2013-02-04 23:03:00,
2013-02-04 17:05:00,74.5,51.8,-100.00,SSE,158,0.0,1.0,45,0.00,,,0.00,meteohub,2013-02-04 23:05:00,
2013-02-04 17:07:00,74.5,51.8,-100.00,South,180,1.0,1.0,45,0.00,,,0.00,meteohub,2013-02-04 23:07:00,
2013-02-04 17:11:00,74.3,51.6,-100.00,ESE,113,2.0,2.0,45,0.00,,,0.00,meteohub,2013-02-04 23:11:00,
2013-02-04 17:13:00,74.3,51.6,-100.00,West,270,0.0,1.0,45,0.00,,,0.00,meteohub,2013-02-04 23:13:00,
2013-02-04 17:17:00,74.1,52.0,-100.00,SSW,203,8.0,8.0,46,0.00,,,0.00,meteohub,2013-02-04 23:17:00,
2013-02-04 17:23:00,73.8,51.6,-100.00,SE,135,0.0,8.0,46,0.00,,,0.00,meteohub,2013-02-04 23:23:00,
2013-02-04 17:27:00,73.4,52.0,-100.00,SW,225,1.0,8.0,47,0.00,,,0.00,meteohub,2013-02-04 23:27:00,
2013-02-04 17:29:00,73.2,51.8,-100.00,SSE,158,1.0,8.0,47,0.00,,,0.00,meteohub,2013-02-04 23:29:00,
2013-02-04 17:31:00,73.2,52.3,-100.00,South,180,0.0,8.0,48,0.00,,,0.00,meteohub,2013-02-04 23:31:00,
2013-02-04 17:33:00,73.2,52.3,-100.00,South,180,0.0,8.0,48,0.00,,,0.00,meteohub,2013-02-04 23:33:00,
2013-02-04 17:39:00,72.9,52.0,-100.00,SSW,203,1.0,2.0,48,0.00,,,0.00,meteohub,2013-02-04 23:39:00,
2013-02-04 17:41:00,72.9,52.0,-100.00,South,180,2.0,2.0,48,0.00,,,0.00,meteohub,2013-02-04 23:41:00,
2013-02-04 17:43:00,72.7,52.3,-100.00,SSE,158,1.0,1.0,49,0.00,,,0.00,meteohub,2013-02-04 23:43:00,
2013-02-04 17:47:00,72.5,52.3,-100.00,SW,225,3.0,3.0,49,0.00,,,0.00,meteohub,2013-02-04 23:47:00,
2013-02-04 17:49:00,72.3,52.2,-100.00,SSE,158,0.0,2.0,49,0.00,,,0.00,meteohub,2013-02-04 23:49:00,
2013-02-04 17:53:00,72.1,52.5,-100.00,SSE,158,1.0,3.0,50,0.00,,,0.00,meteohub,2013-02-04 23:53:00,
2013-02-04 17:57:00,72.0,52.3,-100.00,SW,225,2.0,3.0,50,0.00,,,0.00,meteohub,2013-02-04 23:57:00,
2013-02-04 18:02:00,71.6,52.0,-100.00,South,180,0.0,3.0,50,0.00,,,0.00,meteohub,2013-02-05 00:02:00,
2013-02-04 18:03:00,71.4,51.8,-100.00,SE,135,0.0,3.0,50,0.00,,,0.00,meteohub,2013-02-05 00:03:00,
2013-02-04 18:07:00,71.4,52.3,-100.00,SE,135,0.0,3.0,51,0.00,,,0.00,meteohub,2013-02-05 00:07:00,
2013-02-04 18:09:00,71.2,52.2,-100.00,ESE,113,0.0,3.0,51,0.00,,,0.00,meteohub,2013-02-05 00:09:00,
2013-02-04 18:13:00,70.9,52.3,-100.00,ESE,113,1.0,3.0,52,0.00,,,0.00,meteohub,2013-02-05 00:13:00,
2013-02-04 18:17:00,70.5,52.0,-100.00,South,180,0.0,2.0,52,0.00,,,0.00,meteohub,2013-02-05 00:17:00,
2013-02-04 18:20:00,70.3,51.8,-100.00,SSW,203,0.0,2.0,52,0.00,,,0.00,meteohub,2013-02-05 00:20:00,
2013-02-04 18:22:00,70.3,51.8,-100.00,SSW,203,0.0,2.0,52,0.00,,,0.00,meteohub,2013-02-05 00:22:00,
2013-02-04 18:26:00,70.0,52.0,-100.00,NE,45,0.0,2.0,53,0.00,,,0.00,meteohub,2013-02-05 00:26:00,
2013-02-04 18:28:00,70.0,52.0,-100.00,NE,45,0.0,2.0,53,0.00,,,0.00,meteohub,2013-02-05 00:28:00,
2013-02-04 18:32:00,69.4,51.6,-100.00,NE,45,0.0,0.0,53,0.00,,,0.00,meteohub,2013-02-05 00:32:00,
2013-02-04 18:34:00,69.4,52.2,-100.00,NE,45,0.0,0.0,54,0.00,,,0.00,meteohub,2013-02-05 00:34:00,
2013-02-04 18:38:00,68.9,51.6,-100.00,NE,45,0.0,0.0,54,0.00,,,0.00,meteohub,2013-02-05 00:38:00,
2013-02-04 18:40:00,68.9,51.6,-100.00,NE,45,0.0,0.0,54,0.00,,,0.00,meteohub,2013-02-05 00:40:00,
2013-02-04 18:42:00,68.9,51.6,-100.00,NE,45,0.0,0.0,54,0.00,,,0.00,meteohub,2013-02-05 00:42:00,
2013-02-04 18:47:00,68.4,51.1,-100.00,NE,45,0.0,0.0,54,0.00,,,0.00,meteohub,2013-02-05 00:47:00,
2013-02-04 18:48:00,68.4,51.1,-100.00,NE,45,0.0,0.0,54,0.00,,,0.00,meteohub,2013-02-05 00:48:00,
2013-02-04 18:54:00,67.8,51.1,-100.00,NE,45,0.0,0.0,55,0.00,,,0.00,meteohub,2013-02-05 00:54:00,
2013-02-04 18:58:00,67.6,50.9,-100.00,NE,45,0.0,0.0,55,0.00,,,0.00,meteohub,2013-02-05 00:58:00,
2013-02-04 19:00:00,67.6,50.9,-100.00,NE,45,0.0,0.0,55,0.00,,,0.00,meteohub,2013-02-05 01:00:00,
2013-02-04 19:02:00,67.3,50.5,-100.00,NE,45,0.0,0.0,55,0.00,,,0.00,meteohub,2013-02-05 01:02:00,
2013-02-04 19:08:00,66.9,50.7,-100.00,NE,45,0.0,0.0,56,0.00,,,0.00,meteohub,2013-02-05 01:08:00,
2013-02-04 19:10:00,66.7,50.5,-100.00,NE,45,0.0,0.0,56,0.00,,,0.00,meteohub,2013-02-05 01:10:00,
2013-02-04 19:12:00,66.6,50.9,-100.00,NE,45,0.0,0.0,57,0.00,,,0.00,meteohub,2013-02-05 01:12:00,
2013-02-04 19:14:00,66.4,50.7,-100.00,NE,45,0.0,0.0,57,0.00,,,0.00,meteohub,2013-02-05 01:14:00,
2013-02-04 19:16:00,66.4,50.7,-100.00,NE,45,0.0,0.0,57,0.00,,,0.00,meteohub,2013-02-05 01:16:00,
2013-02-04 19:22:00,66.0,50.4,-100.00,NE,45,0.0,0.0,57,0.00,,,0.00,meteohub,2013-02-05 01:22:00,
2013-02-04 19:24:00,65.8,50.7,-100.00,NE,45,0.0,0.0,58,0.00,,,0.00,meteohub,2013-02-05 01:24:00,
2013-02-04 19:28:00,65.5,50.4,-100.00,NNE,23,0.0,0.0,58,0.00,,,0.00,meteohub,2013-02-05 01:28:00,
2013-02-04 19:30:00,65.5,50.4,-100.00,NNE,23,0.0,0.0,58,0.00,,,0.00,meteohub,2013-02-05 01:30:00,
2013-02-04 19:36:00,65.1,50.4,-100.00,NNE,23,0.0,0.0,59,0.00,,,0.00,meteohub,2013-02-05 01:36:00,
2013-02-04 19:38:00,64.9,50.2,-100.00,NNE,23,0.0,0.0,59,0.00,,,0.00,meteohub,2013-02-05 01:38:00,
2013-02-04 19:40:00,64.8,50.2,-100.00,NNE,23,0.0,0.0,59,0.00,,,0.00,meteohub,2013-02-05 01:40:00,
2013-02-04 19:42:00,64.6,50.0,-100.00,NNE,23,0.0,0.0,59,0.00,,,0.00,meteohub,2013-02-05 01:42:00,
2013-02-04 19:44:00,64.4,49.8,-100.00,NNE,23,0.0,0.0,59,0.00,,,0.00,meteohub,2013-02-05 01:44:00,
2013-02-04 19:47:00,64.2,49.6,-100.00,NNE,23,0.0,0.0,59,0.00,,,0.00,meteohub,2013-02-05 01:47:00,
2013-02-04 19:48:00,64.2,49.6,-100.00,NNE,23,0.0,0.0,59,0.00,,,0.00,meteohub,2013-02-05 01:48:00,
2013-02-04 19:52:00,64.0,49.8,-100.00,NNE,23,0.0,0.0,60,0.00,,,0.00,meteohub,2013-02-05 01:52:00,
2013-02-04 19:54:00,64.0,49.8,-100.00,NNE,23,0.0,0.0,60,0.00,,,0.00,meteohub,2013-02-05 01:54:00,
2013-02-04 19:58:00,63.7,49.5,-100.00,NNE,23,0.0,0.0,60,0.00,,,0.00,meteohub,2013-02-05 01:58:00,
2013-02-04 20:02:00,63.5,49.8,-100.00,NNE,23,0.0,0.0,61,0.00,,,0.00,meteohub,2013-02-05 02:02:00,
2013-02-04 20:06:00,63.1,49.5,-100.00,NNE,23,0.0,0.0,61,0.00,,,0.00,meteohub,2013-02-05 02:06:00,
2013-02-04 20:08:00,63.1,49.5,-100.00,NNE,23,0.0,0.0,61,0.00,,,0.00,meteohub,2013-02-05 02:08:00,
2013-02-04 20:14:00,62.8,49.6,-100.00,NNE,23,0.0,0.0,62,0.00,,,0.00,meteohub,2013-02-05 02:14:00,
2013-02-04 20:16:00,62.6,49.5,-100.00,NNE,23,0.0,0.0,62,0.00,,,0.00,meteohub,2013-02-05 02:16:00,
2013-02-04 20:18:00,62.4,49.3,-100.00,NNE,23,0.0,0.0,62,0.00,,,0.00,meteohub,2013-02-05 02:18:00,
2013-02-04 20:20:00,62.4,49.3,-100.00,NNE,23,0.0,0.0,62,0.00,,,0.00,meteohub,2013-02-05 02:20:00,
2013-02-04 20:24:00,62.2,49.5,-100.00,NNE,23,0.0,0.0,63,0.00,,,0.00,meteohub,2013-02-05 02:24:00,
2013-02-04 20:28:00,61.9,49.1,-100.00,NNE,23,1.0,0.0,63,0.00,,,0.00,meteohub,2013-02-05 02:28:00,
2013-02-04 20:30:00,61.7,48.9,-100.00,NNE,23,0.0,1.0,63,0.00,,,0.00,meteohub,2013-02-05 02:30:00,
2013-02-04 20:32:00,61.7,48.9,-100.00,NNE,23,0.0,1.0,63,0.00,,,0.00,meteohub,2013-02-05 02:32:00,
2013-02-04 20:34:00,61.5,49.3,-100.00,NNE,23,0.0,1.0,64,0.00,,,0.00,meteohub,2013-02-05 02:34:00,
2013-02-04 20:40:00,61.2,48.9,-100.00,NNE,23,0.0,1.0,64,0.00,,,0.00,meteohub,2013-02-05 02:40:00,
2013-02-04 20:42:00,61.0,49.1,-100.00,NNE,23,0.0,1.0,65,0.00,,,0.00,meteohub,2013-02-05 02:42:00,
2013-02-04 20:46:00,61.0,49.1,-100.00,NNE,23,0.0,0.0,65,0.00,,,0.00,meteohub,2013-02-05 02:46:00,
2013-02-04 20:50:00,60.6,48.7,-100.00,NNE,23,0.0,0.0,65,0.00,,,0.00,meteohub,2013-02-05 02:50:00,
2013-02-04 20:54:00,60.4,48.6,-100.00,NNE,23,0.0,0.0,65,0.00,,,0.00,meteohub,2013-02-05 02:54:00,
2013-02-04 20:56:00,60.4,48.6,-100.00,NNE,23,0.0,0.0,65,0.00,,,0.00,meteohub,2013-02-05 02:56:00,
2013-02-04 20:59:00,60.4,49.1,-100.00,NNE,23,0.0,0.0,66,0.00,,,0.00,meteohub,2013-02-05 02:59:00,
2013-02-04 21:01:00,60.3,48.9,-100.00,NNE,23,0.0,0.0,66,0.00,,,0.00,meteohub,2013-02-05 03:01:00,
2013-02-04 21:02:00,60.1,48.7,-100.00,NNE,23,0.0,0.0,66,0.00,,,0.00,meteohub,2013-02-05 03:02:00,
2013-02-04 21:05:00,60.1,48.7,-100.00,NNE,23,0.0,0.0,66,0.00,,,0.00,meteohub,2013-02-05 03:05:00,
2013-02-04 21:07:00,60.1,48.7,-100.00,NNE,23,0.0,0.0,66,0.00,,,0.00,meteohub,2013-02-05 03:07:00,
2013-02-04 21:11:00,59.7,48.4,-100.00,NNE,23,0.0,0.0,66,0.00,,,0.00,meteohub,2013-02-05 03:11:00,
2013-02-04 21:13:00,59.5,48.2,-100.00,NNE,23,0.0,0.0,66,0.00,,,0.00,meteohub,2013-02-05 03:13:00,
2013-02-04 21:15:00,59.5,48.2,-100.00,NNE,23,0.0,0.0,66,0.00,,,0.00,meteohub,2013-02-05 03:15:00,
2013-02-04 21:21:00,59.2,48.2,-100.00,NNE,23,0.0,0.0,67,0.00,,,0.00,meteohub,2013-02-05 03:21:00,
2013-02-04 21:25:00,59.0,48.0,-100.00,North,0,0.0,0.0,67,0.00,,,0.00,meteohub,2013-02-05 03:25:00,
2013-02-04 21:27:00,58.8,47.8,-100.00,NW,315,0.0,0.0,67,0.00,,,0.00,meteohub,2013-02-05 03:27:00,
2013-02-04 21:29:00,58.8,47.8,-100.00,WNW,293,0.0,0.0,67,0.00,,,0.00,meteohub,2013-02-05 03:29:00,
2013-02-04 21:33:00,58.6,47.7,-100.00,WNW,293,0.0,0.0,67,0.00,,,0.00,meteohub,2013-02-05 03:33:00,
2013-02-04 21:35:00,58.6,47.7,-100.00,WNW,293,1.0,1.0,67,0.00,,,0.00,meteohub,2013-02-05 03:35:00,
2013-02-04 21:37:00,58.5,48.0,-100.00,WNW,293,0.0,1.0,68,0.00,,,0.00,meteohub,2013-02-05 03:37:00,
2013-02-04 21:39:00,58.3,47.8,-100.00,WNW,293,0.0,1.0,68,0.00,,,0.00,meteohub,2013-02-05 03:39:00,
2013-02-04 21:43:00,58.1,47.7,-100.00,WNW,293,0.0,1.0,68,0.00,,,0.00,meteohub,2013-02-05 03:43:00,
2013-02-04 21:47:00,57.9,47.5,-100.00,WNW,293,0.0,1.0,68,0.00,,,0.00,meteohub,2013-02-05 03:47:00,
2013-02-04 21:49:00,57.9,47.5,-100.00,WNW,293,0.0,1.0,68,0.00,,,0.00,meteohub,2013-02-05 03:49:00,
2013-02-04 21:53:00,57.7,47.7,-100.00,NW,315,0.0,1.0,69,0.00,,,0.00,meteohub,2013-02-05 03:53:00,
2013-02-04 21:57:00,57.6,47.5,-100.00,NNW,338,0.0,0.0,69,0.00,,,0.00,meteohub,2013-02-05 03:57:00,
2013-02-04 22:01:00,57.2,47.1,-100.00,NNW,338,0.0,0.0,69,0.00,,,0.00,meteohub,2013-02-05 04:01:00,
2013-02-04 22:03:00,57.0,46.9,-100.00,NNW,338,0.0,0.0,69,0.00,,,0.00,meteohub,2013-02-05 04:03:00,
2013-02-04 22:05:00,57.0,46.9,-100.00,NNW,338,0.0,0.0,69,0.00,,,0.00,meteohub,2013-02-05 04:05:00,
2013-02-04 22:07:00,57.0,47.3,-100.00,NNW,338,0.0,0.0,70,0.00,,,0.00,meteohub,2013-02-05 04:07:00,
2013-02-04 22:09:00,57.0,47.3,-100.00,NNW,338,0.0,0.0,70,0.00,,,0.00,meteohub,2013-02-05 04:09:00,
2013-02-04 22:13:00,56.8,47.1,-100.00,NNW,338,0.0,0.0,70,0.00,,,0.00,meteohub,2013-02-05 04:13:00,
2013-02-04 22:15:00,56.8,47.1,-100.00,NNW,338,0.0,0.0,70,0.00,,,0.00,meteohub,2013-02-05 04:15:00,
2013-02-04 22:17:00,56.5,46.8,-100.00,NNW,338,0.0,0.0,70,0.00,,,0.00,meteohub,2013-02-05 04:17:00,
2013-02-04 22:23:00,56.5,46.8,-100.00,NNW,338,0.0,0.0,70,0.00,,,0.00,meteohub,2013-02-05 04:23:00,
2013-02-04 22:25:00,56.3,46.6,-100.00,NNW,338,0.0,0.0,70,0.00,,,0.00,meteohub,2013-02-05 04:25:00,
2013-02-04 22:27:00,56.3,46.6,-100.00,NNW,338,0.0,0.0,70,0.00,,,0.00,meteohub,2013-02-05 04:27:00,
2013-02-04 22:31:00,56.1,46.8,-100.00,NNW,338,0.0,0.0,71,0.00,,,0.00,meteohub,2013-02-05 04:31:00,
2013-02-04 22:32:00,56.1,46.8,-100.00,NNW,338,0.0,0.0,71,0.00,,,0.00,meteohub,2013-02-05 04:32:00,
2013-02-04 22:33:00,55.9,46.8,-100.00,NNW,338,0.0,0.0,71,0.00,,,0.00,meteohub,2013-02-05 04:33:00,
2013-02-04 22:37:00,55.9,46.8,-100.00,NNW,338,0.0,0.0,71,0.00,,,0.00,meteohub,2013-02-05 04:37:00,
2013-02-04 22:41:00,55.9,46.8,-100.00,NNW,338,0.0,0.0,71,0.00,,,0.00,meteohub,2013-02-05 04:41:00,
2013-02-04 22:45:00,55.6,46.4,-100.00,NNW,338,0.0,0.0,71,0.00,,,0.00,meteohub,2013-02-05 04:45:00,
2013-02-04 22:47:00,55.6,46.4,-100.00,NNW,338,0.0,0.0,71,0.00,,,0.00,meteohub,2013-02-05 04:47:00,
2013-02-04 22:51:00,55.2,46.4,-100.00,NNW,338,0.0,0.0,72,0.00,,,0.00,meteohub,2013-02-05 04:51:00,
2013-02-04 22:55:00,55.2,46.4,-100.00,NNW,338,0.0,0.0,72,0.00,,,0.00,meteohub,2013-02-05 04:55:00,
2013-02-04 22:57:00,55.2,46.4,-100.00,NNW,338,0.0,0.0,72,0.00,,,0.00,meteohub,2013-02-05 04:57:00,
2013-02-04 22:59:00,55.2,46.4,-100.00,NNW,338,0.0,0.0,72,0.00,,,0.00,meteohub,2013-02-05 04:59:00,
2013-02-04 23:01:00,55.0,46.2,-100.00,NNW,338,0.0,0.0,72,0.00,,,0.00,meteohub,2013-02-05 05:01:00,
2013-02-04 23:02:00,55.0,46.2,-100.00,NNW,338,0.0,0.0,72,0.00,,,0.00,meteohub,2013-02-05 05:02:00,
2013-02-04 23:03:00,55.0,46.2,-100.00,NNW,338,0.0,0.0,72,0.00,,,0.00,meteohub,2013-02-05 05:03:00,
2013-02-04 23:08:00,54.9,46.0,-100.00,NW,315,0.0,0.0,72,0.00,,,0.00,meteohub,2013-02-05 05:08:00,
2013-02-04 23:10:00,54.7,45.9,-100.00,NW,315,0.0,0.0,72,0.00,,,0.00,meteohub,2013-02-05 05:10:00,
2013-02-04 23:14:00,54.7,45.9,-100.00,NW,315,0.0,0.0,72,0.00,,,0.00,meteohub,2013-02-05 05:14:00,
2013-02-04 23:17:00,54.5,46.0,-100.00,WNW,293,0.0,0.0,73,0.00,,,0.00,meteohub,2013-02-05 05:17:00,
2013-02-04 23:18:00,54.5,46.0,-100.00,WNW,293,0.0,0.0,73,0.00,,,0.00,meteohub,2013-02-05 05:18:00,
2013-02-04 23:22:00,54.3,45.9,-100.00,WNW,293,0.0,0.0,73,0.00,,,0.00,meteohub,2013-02-05 05:22:00,
2013-02-04 23:24:00,54.3,45.9,-100.00,WNW,293,0.0,0.0,73,0.00,,,0.00,meteohub,2013-02-05 05:24:00,
2013-02-04 23:26:00,54.1,45.7,-100.00,WNW,293,0.0,0.0,73,0.00,,,0.00,meteohub,2013-02-05 05:26:00,
2013-02-04 23:28:00,54.1,45.7,-100.00,WNW,293,0.0,0.0,73,0.00,,,0.00,meteohub,2013-02-05 05:28:00,
2013-02-04 23:30:00,54.1,45.7,-100.00,WNW,293,0.0,0.0,73,0.00,,,0.00,meteohub,2013-02-05 05:30:00,
2013-02-04 23:32:00,54.0,45.5,-100.00,WNW,293,0.0,0.0,73,0.00,,,0.00,meteohub,2013-02-05 05:32:00,
2013-02-04 23:34:00,54.0,45.5,-100.00,WNW,293,0.0,0.0,73,0.00,,,0.00,meteohub,2013-02-05 05:34:00,
2013-02-04 23:36:00,53.8,45.3,-100.00,WNW,293,0.0,0.0,73,0.00,,,0.00,meteohub,2013-02-05 05:36:00,
2013-02-04 23:38:00,53.8,45.3,-100.00,WNW,293,0.0,0.0,73,0.00,,,0.00,meteohub,2013-02-05 05:38:00,
2013-02-04 23:40:00,53.8,45.7,-100.00,WNW,293,0.0,0.0,74,0.00,,,0.00,meteohub,2013-02-05 05:40:00,
2013-02-04 23:46:00,53.4,45.3,-100.00,WNW,293,0.0,0.0,74,0.00,,,0.00,meteohub,2013-02-05 05:46:00,
2013-02-04 23:47:00,53.4,45.3,-100.00,WNW,293,0.0,0.0,74,0.00,,,0.00,meteohub,2013-02-05 05:47:00,
2013-02-04 23:50:00,53.4,45.3,-100.00,WNW,293,0.0,0.0,74,0.00,,,0.00,meteohub,2013-02-05 05:50:00,
2013-02-04 23:52:00,53.4,45.3,-100.00,WNW,293,0.0,0.0,74,0.00,,,0.00,meteohub,2013-02-05 05:52:00,
2013-02-04 23:56:00,53.2,45.1,-100.00,WNW,293,0.0,0.0,74,0.00,,,0.00,meteohub,2013-02-05 05:56:00,
2013-02-04 23:58:00,53.2,45.1,-100.00,WNW,293,0.0,0.0,74,0.00,,,0.00,meteohub,2013-02-05 05:58:00,